Regional Weather Roundup
Issued by NWS Wakefield, VA

Home | Current Version | Previous Version | Graphics & Text | Print | Product List | Glossary On
Versions: 1 2 3 4 5 6 7 8 9 10 11 12 13 14 15 16 17 18 19 20 21 22 23 24 25 26 27 28 29 30 31 32 33 34 35 36 37 38 39 40 41 42 43 44 45 46 47 48 49 50
000
ASUS41 KAKQ 231310
RWRAKQ

REGIONAL WEATHER ROUNDUP
NATIONAL WEATHER SERVICE WAKEFIELD VA
900 AM EDT WED JUL 23 2014

Note: "fair" indicates few or no clouds below 12,000 feet with no
significant weather and/or obstructions to visibility. * = Denotes
station may not report precipitation (e.g., rain,snow,etc.),
thunder or fog.

VAZ042-051-052>054-056-231400-
NORTHERN VIRGINIA

CITY           SKY/WX    TMP DP  RH WIND       PRES   REMARKS
WASH NATIONAL  MOSUNNY   82  69  64 SW6       30.01F
DULLES         MOSUNNY   76  70  82 CALM      30.01F
FORT BELVOIR   DRIZZLE   80  71  75 S2        30.01F
QUANTICO       MOSUNNY   78  71  79 S6        30.01F
FREDERICKSBRG* SUNNY     80  72  76 SW3       30.01S
STAFFORD*      MOSUNNY   78  76  96 W3        30.05F
WARRENTON      MOSUNNY   80  76  89 SW3       30.01F
CULPEPER*      MOSUNNY  N/A N/A N/A SW6       30.02F
MANASSAS*      NOT AVBL
LEESBURG*      SUNNY     79  73  83 CALM      30.02F
WINCHESTER     SUNNY     81  70  69 SW7       30.02S
$$

VAZ048-049-060>072-079>083-231400-
CENTRAL AND SOUTH CENTRAL VIRGINIA...AND NORTH CENTRAL NORTH CAROLINA

CITY           SKY/WX    TMP DP  RH WIND       PRES   REMARKS
RICHMOND       MOSUNNY   78  71  79 SW7       30.04S
CHESTERFIELD*  SUNNY    N/A N/A N/A SW3       30.05F
HANOVER        SUNNY     81  70  69 SW8       30.05S
TAPPAHANNOCK*  SUNNY     78  71  79 S7        30.04S
CHARLOTTSVILLE PTSUNNY   78  72  81 S5        30.04S
ORANGE*        MOSUNNY   79  72  78 S3        30.04S
LOUISA*        SUNNY     79  72  78 W3        30.02F
FARMVILLE*     SUNNY     79  75  89 S5        30.03F
SOUTH HILL*    CLOUDY    75  75 100 SW7       30.12S FOG
ROANOKE RAPIDS CLOUDY    66  64  94 CALM      30.07R
RALEIGH        PTSUNNY   77  73  87 SW5       30.08S
$$

VAZ088>098-231400-
SOUTHEAST VIRGINIA

CITY           SKY/WX    TMP DP  RH WIND       PRES   REMARKS
NORFOLK        CLOUDY    77  72  84 SW6       30.04S
VIRGINIA BEACH PTSUNNY   77  73  87 W5        30.03F
NORFOLK NAVAL  PTSUNNY   77  72  84 W5        30.06S
WEST POINT*    PTSUNNY   79  73  80 SW5       30.06S
NEWPORT NEWS   CLOUDY    80  72  76 W6        30.05R
LANGLEY AFB    DRIZZLE   79  75  89 SW8       30.04S
FORT EUSTIS    PTSUNNY   75  72  88 VRB5      30.03S
WILLIAMSBURG*  PTSUNNY   79  73  83 CALM      30.06S
FRANKLIN*      CLOUDY    73 N/A N/A SW5       30.06S
WAKEFIELD      CLOUDY    76  72  87 W5        30.06R
$$

VAZ020-022-025-037-045-231400-
WESTERN AND SOUTHWEST VIRGINIA

CITY           SKY/WX    TMP DP  RH WIND       PRES   REMARKS
STAUNTON*      CLOUDY    76  69  80 SW5       30.09S
HOT SPRINGS VA SUNNY     66  63  91 W9        30.23S
LYNCHBURG      SUNNY     75  71  87 S5        30.09S
DANVILLE       MOSUNNY   78  71  79 W7        30.08S
MARTINSVILLE   SUNNY     77  71  82 CALM      30.12F
ROANOKE        MOSUNNY   76  68  76 W6        30.11S
BLACKSBURG     MOSUNNY   72  72 100 NW3       30.18S
DUBLIN*        MOSUNNY   73  72  97 S3        30.17F
MARION*        MOSUNNY   71  69  92 W6        30.21F
HILLSVILLE*    PTSUNNY   66  65  99 W3        30.20S
RICHLANDS*     MOSUNNY   75  68  80 S3        30.19F
WISE*          SUNNY     72  70  94 SW3       30.20F
ABINGDON*      CLOUDY    73  69  85 CALM      30.18S
$$

MDZ021>025-VAZ099-100-231400-
SOUTHERN MARYLAND AND THE DELMARVA PENINSULA

CITY           SKY/WX    TMP DP  RH WIND       PRES   REMARKS
PATUXENT RIVER MOSUNNY   79  72  79 W7        30.02S
BAY BRIDGE APT   N/A     79  72  78 S6        30.01S
LEONARDTOWN    SUNNY     79  70  73 SW6       30.04S
DOVER          MOSUNNY   76  76 100 SW12      30.00S
GEORGETOWN     MOSUNNY   79  73  82 S10       30.03S
EASTON         MOSUNNY   81  81 100 SW7       30.05S
CAMBRIDGE        N/A     79  72  78 SW6         N/A
SALISBURY      NOT AVBL
OCEAN CITY     SUNNY     80  73  79 SW5       30.03S
WALLOPS ISLAND PTSUNNY   81  74  79 W7        30.04S
ACCOMACK*        N/A     79  72  78 W3        30.04S
$$

NCZ012>017-030>032-231400-
EASTERN NORTH CAROLINA

CITY           SKY/WX    TMP DP  RH WIND       PRES   REMARKS
ELIZABETH CITY CLOUDY    77  74  90 W7        30.06R
AHOSKIE*       CLOUDY    74  73  96 CALM      30.07S
EDENTON*       CLOUDY    78  75  92 W3        30.06S
CURRITUCK*     CLOUDY    77  75  91 W3        30.06S
KILL DEVIL HLS CLOUDY    78  75  92 W6        30.04S
MANTEO         NOT AVBL
CAPE HATTERAS  PTSUNNY   81  75  82 W12       30.07R
GOLDSBORO      CLOUDY    78  78  99 W6        30.06S
WASHINGTON     CLOUDY    76  74  95 SW3       30.08R
GREENVILLE     CLOUDY    77  75  94 CALM      30.09R
NEW BERN       PTSUNNY   80  74  81 NW5       30.08S
WILMINGTON     SUNNY     81  74  79 NW6       30.07R
$$

VAZ048-231400-
ELSEWHERE

CITY           SKY/WX    TMP DP  RH WIND       PRES   REMARKS
HARRISBURG PA  MOSUNNY   79  71  76 SE5       29.97F
BALTIMORE      MOSUNNY   80  71  74 SW7       29.99F
ANNAPOLIS      MOSUNNY   81  71  71 VRB3      30.00S
ANDREWS AFB    MOSUNNY   79  72  79 W8        30.02S
WILMINGTON DE  MOSUNNY   79  72  79 S6        30.01F
PHILADELPHIA   MOSUNNY   78  69  73 SW8       30.00F
WILDWOOD NJ*   MOSUNNY   79  72  78 SW9       30.03F
ATLANTIC CITY  PTSUNNY   76  72  87 SW8       30.02S
HENDERSON NC   SUNNY     75  73  95 CALM      30.08S
GREENSBORO     PTSUNNY   76  71  85 SW6       30.10S
ROCKY MOUNT    PTSUNNY   77  74  90 CALM      30.07S
FAYETTEVILLE   PTSUNNY   80  75  84 W8        30.07S
CHARLOTTE      MOSUNNY   78  71  79 CALM      30.11S
$$

VAZ100-231400-
MARINE

STATION/POSITION TIME  TEMP    WIND        PRES    WAVE   SWELL
                       AIR SEA DIR/SP/G            HT/PER HT/PER
                 (UTC) (F)     (DEG/KT/KT) (MB)    (FT/S) (FT/S)
44066 TX TWR #4  1300   73 73  220/  8/ 10 1016.5F   2/ 8   2/ 8
CAPE MAY NJ      1200   74 76  220/  6/  9 1016.5S
LEWES DE         1300   78 70  250/  3/  9 1016.3S
15NM E FENWICK I 1300   75 76              1017.1R   2/ 7
OCEAN-CITY-INLET 1300   75 71  170/  4/  6 1016.6F
WACHAPREAGUE VA  1300   78 80  280/  3/  7 1017.0S
THOMAS POINT MD  1300   77 79  190/  8/  9 1016.6F
GOOSES REEF MD   1300   77     200/  8/ 10 1017.0S
COVE POINT MD    1300   76     200/  5/  6 1016.6S
SOLOMONS ISLAND  1300      81                N/A
BISHOPS HEAD MD  1300   77 79  220/  7/  8 1016.4S
PINEY POINT MD   1300          220/  3/  5   N/A
POTOMAC MD       1300   77     240/  4/  6 1016.1R
CAMBRIDGE MD     1300   78 80  220/  5/  7 1016.4S
LEWISETTA VA     1300   77 81  260/  6/  7 1016.6S
RAPPAHANNOCK LGT 1300          250/  6/  7 1017.6F
STINGRAY PT      1300   76     240/  6/  8 1017.8S
YORK RVR RNG VA  1300   76     290/  7/  7 1016.6F
YORKTOWN VA      1300   76 80  240/  5/  6 1016.9F
JAMESTOWN VA     1300   73     260/  4/  8   N/A
DOMINION TERM VA 1300   74     280/  4/  5 1017.6S
KIPTOPEKE VA     1300      80  290/  6/  8   N/A
CHES BAY BRIDGE  1300   76 78  240/  5/  7 1016.8S
CAPE HENRY VA    1300   76     280/  6/  7 1016.1F
WILLOUBY STN VA  1300          240/  7/  9 1016.6F
S CRANEY ISL VA  1300          210/  2/  3 1017.4F
CAPE HENRY BUOY  1300      76                N/A     2/10
1ST LANDING BUOY 1300   77     250/  6/ 10 1017.0S
CAPE CHARLES BUO 1300      75                N/A     2/11
OFFSHORE WE BUOY 1300      77                N/A     2/10
64NM E OF VA BCH 1300   77 78  270/  8/  8 1016.9R   2/ 7   2/ 7
DUCK PIER NC     1300   76 73  270/  5/  7 1016.9F
44056 DUCK FRF   1300                        N/A     2/ 7
OREGON INLET NC  1300   78 79  250/  9/ 11 1017.9R
HATTERAS NC      1300   79 82  270/ 10/ 12 1018.6S
DIAMOND SHLS NC  1300          VRB 14/ 16  1017.8S   3/10   2/10
CAPE LOOKOUT NC  1200   80     260/  9/ 10 1018.0R
$$


USA.gov is the U.S. government's official web portal to all federal, state and local government web resources and services.